This is the latest recevied weather packets stored in our database for station/object NN5DX-13. If no packets are shown the sender has not sent any weather packets the latest 10 day(s).
| Time | Temp. | Humidity | Pressure | Rain* | Wind** | Luminosity | Snow |
|---|---|---|---|---|---|---|---|
| 1787587220 | 35° C | 28% | 1019.2 hPa | 0 mm | - | - | - |
| 1787586921 | 34.44° C | 28% | 1019.3 hPa | 0 mm | - | - | - |
| 1787586621 | 34.44° C | 28% | 1019.3 hPa | 0 mm | - | - | - |
| 1787586321 | 34.44° C | 28% | 1019.5 hPa | 0 mm | - | - | - |
| 1787586020 | 34.44° C | 27% | 1019.5 hPa | 0 mm | - | - | - |
| 1787585721 | 34.44° C | 29% | 1019.3 hPa | 0 mm | - | - | - |
| 1787585421 | 33.89° C | 29% | 1019.3 hPa | 0 mm | - | - | - |
| 1787585122 | 33.89° C | 28% | 1019.2 hPa | 0 mm | - | - | - |
| 1787584821 | 33.33° C | 29% | 1019.1 hPa | 0 mm | - | - | - |
| 1787584521 | 33.33° C | 30% | 1019.1 hPa | 0 mm | - | - | - |
| 1787584221 | 33.89° C | 30% | 1019.1 hPa | 0 mm | - | - | - |
| 1787583921 | 33.33° C | 30% | 1019.1 hPa | 0 mm | - | - | - |
| 1787583621 | 32.78° C | 30% | 1019.2 hPa | 0 mm | - | - | - |
| 1787583321 | 32.78° C | 31% | 1019.1 hPa | 0 mm | - | - | - |
| 1787583020 | 32.78° C | 31% | 1019.1 hPa | 0 mm | - | - | - |
| 1787582722 | 32.22° C | 32% | 1019.4 hPa | 0 mm | - | - | - |
| 1787582421 | 31.67° C | 32% | 1019.2 hPa | 0 mm | - | - | - |
| 1787582121 | 31.67° C | 33% | 1019.2 hPa | 0 mm | - | - | - |
| 1787581820 | 31.67° C | 33% | 1019.2 hPa | 0 mm | - | - | - |
| 1787581520 | 31.11° C | 34% | 1019.3 hPa | 0 mm | - | - | - |
| 1787581220 | 31.11° C | 35% | 1019.2 hPa | 0 mm | - | - | - |
| 1787580920 | 30.56° C | 35% | 1019.4 hPa | 0 mm | - | - | - |
| 1787580621 | 30.56° C | 36% | 1019.5 hPa | 0 mm | - | - | - |
| 1787580321 | 30° C | 37% | 1019.3 hPa | 0 mm | - | - | - |
| 1787580021 | 30° C | 38% | 1019.4 hPa | 0 mm | - | - | - |
* Rain latest hour (hover to see other rain measurements)
** Current wind speed in m/s (hover to see current wind gust speed)